Home   Weather   Charleston   Past weeks

Flag for USA Past Weather in Charleston, South Carolina, USA — Yesterday and Last 2 Weeks

Now
76 °F

Partly sunny.


Feels Like: 77 °F
Forecast: 71 / 81 °F
Wind: 14 mph from South

Location: Charleston Air Force Base Reporting Station

Current Time: Apr 23, 2017 at 7:31:00 pm

Latest Report: Apr 23, 2017 at 6:56 pm


Visibility: 10 mi

Pressure: 29.78 "Hg

Humidity: 72%

Dew Point: 66 °F

Location of CharlestonLocation

Past Weather in Charleston — Graph

°F

Charleston Temperature Yesterday

Maximum temperature yesterday: 84 °F (at 12:56 pm)
Minimum temperature yesterday: 66 °F (at 6:56 am)
Average temperature yesterday: 74 °F

High & Low Weather Summary for the Past Weeks

 TemperatureHumidityPressure
High85 °F (Apr 18, 1:56 pm)100% (Apr 15, 4:56 am)30.37 "Hg (Apr 15, 4:56 am)
Low44 °F (Apr 9, 5:56 am)25% (Apr 9, 12:56 pm)29.79 "Hg (Apr 23, 4:56 pm)
Average69 °F72%30.18 "Hg
* Reported Apr 8 5:56 pm — Apr 23 5:56 pm, Charleston, Weather by CustomWeather, © 2017

Note: Actual official high and low records may vary slightly from our data, if they occured in-between our weather recording intervals... More about our weather records

Advertising

Charleston Weather History for the Previous 24 Hours

Scroll right to see more
 ConditionsComfort  
Time TempWeatherWind HumidityBarometerVisibility
5:56 pm
Sun, Apr 23
77 °FPartly sunny.17 mph71%29.79 "Hg10 mi
4:56 pm80 °FScattered clouds.18 mph62%29.79 "Hg10 mi
3:56 pm81 °FScattered clouds.20 mph62%29.79 "Hg10 mi
2:56 pm82 °FScattered clouds.15 mph60%29.82 "Hg10 mi
1:56 pm81 °FPartly sunny.16 mph62%29.83 "Hg10 mi
12:56 pm81 °FScattered clouds.12 mph65%29.85 "Hg10 mi
11:56 am82 °FScattered clouds.12 mph63%29.86 "Hg10 mi
10:56 am79 °FPassing clouds.8 mph69%29.87 "Hg10 mi
9:56 am77 °FScattered clouds.7 mph74%29.87 "Hg10 mi
8:56 am75 °FScattered clouds.12 mph79%29.87 "Hg10 mi
7:56 am73 °FPassing clouds.9 mph84%29.87 "Hg10 mi
6:56 am70 °FPassing clouds.9 mph90%29.86 "Hg10 mi
5:56 am71 °FPassing clouds.9 mph87%29.85 "Hg10 mi
4:56 am71 °FPassing clouds.12 mph87%29.85 "Hg10 mi
3:56 am71 °FPassing clouds.9 mph90%29.85 "Hg10 mi
2:56 am71 °FPassing clouds.9 mph90%29.87 "Hg10 mi
1:56 am70 °FPassing clouds.9 mph90%29.88 "Hg10 mi
12:56 am71 °FClear.8 mph87%29.90 "Hg10 mi
11:56 pm
Sat, Apr 22
70 °FClear.7 mph87%29.91 "Hg10 mi
10:56 pm70 °FClear.9 mph84%29.90 "Hg10 mi
9:56 pm71 °FClear.13 mph81%29.88 "Hg10 mi
8:56 pm72 °FPassing clouds.13 mph73%29.86 "Hg10 mi
7:56 pm74 °FPassing clouds.16 mph69%29.85 "Hg10 mi
Weather by CustomWeather, © 2017

See weather overviewHow to use our weather pages